This is the latest recevied weather packets stored in our database for station/object GOLDWX. If no packets are shown the sender has not sent any weather packets the latest 10 day(s).
| Time | Temp. | Humidity | Pressure | Rain* | Wind** | Luminosity | Snow |
|---|---|---|---|---|---|---|---|
| 1777211498 | 3.89° C | 95% | 1005.6 hPa | 4.83 mm | - | - | - |
| 1777211198 | 3.89° C | 96% | 1005.6 hPa | 4.83 mm | - | - | - |
| 1777210596 | 3.89° C | 98% | 1005.4 hPa | 4.83 mm | - | - | - |
| 1777210295 | 3.89° C | 97% | 1005.3 hPa | 4.83 mm | - | - | - |
| 1777209693 | 3.89° C | 97% | 1005.3 hPa | 4.83 mm | - | - | - |
| 1777209393 | 3.33° C | 98% | 1005.2 hPa | 4.83 mm | - | - | - |
| 1777208791 | 3.33° C | 98% | 1005.1 hPa | 4.83 mm | - | - | - |
| 1777208490 | 3.33° C | 98% | 1005.1 hPa | 4.83 mm | - | - | - |
| 1777207888 | 3.33° C | 97% | 1005.1 hPa | 4.83 mm | - | - | - |
| 1777207588 | 3.33° C | 97% | 1004.9 hPa | 4.83 mm | - | - | - |
| 1777206986 | 3.33° C | 96% | 1005 hPa | 4.83 mm | - | - | - |
| 1777206685 | 3.33° C | 96% | 1005 hPa | 4.83 mm | - | - | - |
| 1777206083 | 2.78° C | 95% | 1004.9 hPa | 4.83 mm | - | - | - |
| 1777205783 | 2.78° C | 97% | 1004.8 hPa | 4.83 mm | - | - | - |
| 1777205180 | 2.78° C | 97% | 1004.8 hPa | 4.83 mm | - | - | - |
| 1777204879 | 2.78° C | 98% | 1004.7 hPa | 4.83 mm | - | - | - |
| 1777204276 | 2.78° C | 97% | 1004.6 hPa | 4.83 mm | - | - | - |
| 1777203976 | 2.78° C | 95% | 1004.7 hPa | 4.83 mm | - | - | - |
| 1777203374 | 2.78° C | 91% | 1004.7 hPa | 4.57 mm | - | - | - |
| 1777203073 | 3.33° C | 89% | 1004.7 hPa | 4.57 mm | - | - | - |
| 1777202772 | 3.33° C | 87% | 1004.8 hPa | 4.57 mm | - | - | - |
| 1777202471 | 3.89° C | 86% | 1004.8 hPa | 4.57 mm | - | - | - |
| 1777202169 | 3.89° C | 84% | 1004.7 hPa | 4.32 mm | - | - | - |
| 1777201568 | 4.44° C | 81% | 1004.6 hPa | 4.32 mm | - | - | - |
| 1777200665 | 5° C | 79% | 1004.5 hPa | 3.81 mm | - | - | - |
* Rain since midnight (hover to see other rain measurements)
** Current wind speed in m/s (hover to see current wind gust speed)